Regional Weather Roundup
Issued by NWS Northern Indiana

Home | Current Version | Previous Version | Graphics & Text | Print | Product List | Glossary On
Versions: 1 2 3 4 5 6 7 8 9 10 11 12 13 14 15 16 17 18 19 20 21 22 23 24 25 26 27 28 29 30 31 32 33 34 35 36 37 38 39 40 41 42 43 44 45 46 47 48 49 50
000
ASUS43 KIWX 291400
RWRIWX

KIWX WEATHER ROUNDUP
NATIONAL WEATHER SERVICE NORTHERN INDIANA
900 AM EST THU JAN 29 2015

NOTE: "FAIR" INDICATES FEW OR NO CLOUDS BELOW 12,000 FEET WITH NO
SIGNIFICANT WEATHER AND/OR OBSTRUCTIONS TO VISIBILITY.

* THESE STATIONS ARE NOT UNDER NWS QUALITY CONTROL. THEY ALSO MAY NOT
  REPORT WEATHER SUCH AS PRECIPITATION OR FOG.

INZ001>027-291500-
NORTHERN INDIANA

CITY           SKY/WX    TMP DP  RH WIND       PRES   REMARKS
GARY*          CLOUDY    37  28  70 W8        29.75R
SOUTH BEND     CLOUDY    37  28  70 SW3       29.73R
ELKHART*       CLOUDY    36  25  64 CALM      29.72F
GOSHEN         CLOUDY    36  28  73 S8        29.71S
ANGOLA*        CLOUDY    32  27  80 S6        29.72F WCI  26
FORT WAYNE     CLOUDY    37  30  75 S12       29.74F
PERU/GRISSOM   CLOUDY    38  31  76 SW12      29.73R

$$
INZ028>050-291500-
CENTRAL INDIANA

CITY           SKY/WX    TMP DP  RH WIND       PRES   REMARKS
LAFAYETTE      CLOUDY    41  34  76 SW9       29.74R
KOKOMO*        MOCLDY    37  30  75 S14       29.74R
MUNCIE*        PTSUNNY   39  31  72 S16G26    29.75F
INDIANAPOLIS   PTSUNNY   38  31  76 S12       29.76F

$$
MIZ043>046-050>051-056>058-064>065-071>073-077>080-291500-
SOUTHWEST LOWER MICHIGAN

CITY           SKY/WX    TMP DP  RH WIND       PRES   REMARKS
BATTLE CREEK   CLOUDY    34  24  67 S5        29.73S WCI  30
BENTON HARBOR  CLOUDY    33  27  78 CALM      29.73R
COLDWATER*     CLOUDY    32  26  77 S6        29.73S WCI  26
HILLSDALE*     CLOUDY    30  26  86 S5        29.73F WCI  25
HOLLAND        CLOUDY    33  27  78 CALM      29.74R
GRAND RAPIDS   FRZ RAIN  30  27  88 NE3       29.74R FOG
KALAMAZOO      CLOUDY    33  24  69 S6        29.72F WCI  28
STURGIS*       CLOUDY    34  27  75 CALM      29.71F
THREE RIVERS*  CLOUDY    33  26  75 CALM      29.72F

$$
OHZ001>008-015>018-024>025-291500-
NORTHWEST OHIO

CITY           SKY/WX    TMP DP  RH WIND       PRES   REMARKS
DEFIANCE       CLOUDY    36  28  73 S9        29.76F
FINDLAY        CLOUDY    37  29  72 S20G28    29.78F
TOLEDO EXPRESS CLOUDY    32  25  75 S5        29.77F WCI  27
TOLEDO METCALF CLOUDY    34  24  67 S14       29.79F WCI  25
LIMA           CLOUDY    39  29  67 S16G28    29.79S

$$
AND FOR LAKE MICHIGAN COASTAL AND OPEN LAKE BUOY OBSERVATIONS

STATION/POSITION TEMP    WIND        PRES    VSBY  WAVE
                 AIR SEA DIR/SP/G                  HT/PER
                 (F)     (DEG/KT/KT) (MB)    (MI)  (FT/S)
CALUMET HARBOR    36     260/  5/  6   N/A
MICHIGAN CITY     37     160/ 10/ 13   N/A
SAINT JOSEPH      36     140/  2/  6 1006.4S

$$
&&



USA.gov is the U.S. government's official web portal to all federal, state and local government web resources and services.